W8SZ Weather Reports


Display with metric or nautical units.
time (UTC)temp
F
wind
direction
speed
MPH
gust
MPH
rain 1hr
in
rain 24hr
in
rain mn
in
humidity
%
barometer
mb
20180222190400 27 66 8.0 0.0 0.00 0.00 0.00 80 1037.1
20180222185851 27 67 5.0 0.0 0.00 0.00 0.00 79 1037.2
20180222185355 27 68 7.0 0.0 0.00 0.00 0.00 79 1037.2
20180222184857 27 68 6.0 0.0 0.00 0.00 0.00 80 1037.1
20180222184339 27 68 6.0 0.0 0.00 0.00 0.00 81 1037.3
20180222183844 27 68 8.0 0.0 0.00 0.00 0.00 82 1037.3
20180222183352 27 68 8.0 0.0 0.00 0.00 0.00 81 1037.1
20180222182840 27 67 7.0 0.0 0.00 0.00 0.00 81 1037.3
20180222182346 27 67 7.0 0.0 0.00 0.00 0.00 81 1037.5
20180222181851 27 67 6.0 0.0 0.00 0.00 0.00 81 1037.5
20180222181356 27 67 8.0 0.0 0.00 0.00 0.00 81 1037.7
20180222180839 27 67 8.0 0.0 0.00 0.00 0.00 82 1038.1
20180222180404 27 67 8.0 0.0 0.00 0.00 0.00 81 1038.0
20180222175838 27 67 9.0 0.0 0.00 0.00 0.00 81 1037.7
20180222175344 27 67 9.0 0.0 0.00 0.00 0.00 81 1037.9
20180222174851 27 67 10.0 0.0 0.00 0.00 0.00 82 1038.1
20180222174338 27 67 8.0 0.0 0.00 0.00 0.00 81 1038.4
20180222173844 27 67 9.0 0.0 0.00 0.00 0.00 81 1038.1
20180222173407 27 67 8.0 0.0 0.00 0.00 0.00 82 1038.6
20180222172837 27 67 7.0 0.0 0.00 0.00 0.00 81 1038.5
20180222172341 27 66 9.0 0.0 0.00 0.00 0.00 81 1038.3
20180222171846 27 66 9.0 0.0 0.00 0.00 0.00 83 1038.2
20180222171347 27 66 10.0 0.0 0.00 0.00 0.00 83 1038.7
20180222170851 27 66 9.0 0.0 0.00 0.00 0.00 83 1038.7
20180222170357 27 64 11.0 0.0 0.00 0.00 0.00 82 1038.9
20180222165851 28 64 7.0 0.0 0.00 0.00 0.00 82 1038.8
20180222165353 28 64 8.0 0.0 0.00 0.00 0.00 82 1038.7
20180222164855 28 64 8.0 0.0 0.00 0.00 0.00 81 1039.3
20180222164355 28 64 10.0 0.0 0.00 0.00 0.00 82 1038.9
20180222163839 28 64 8.0 0.0 0.00 0.00 0.00 81 1039.1
20180222163405 28 64 9.0 0.0 0.00 0.00 0.00 82 1039.4
20180222162838 28 63 10.0 0.0 0.00 0.00 0.00 83 1039.4
20180222162342 28 63 7.0 0.0 0.00 0.00 0.00 83 1039.0
20180222161847 28 64 11.0 0.0 0.00 0.00 0.00 83 1039.0
20180222161353 28 63 10.0 0.0 0.00 0.00 0.00 83 1038.6
20180222160855 27 63 10.0 0.0 0.00 0.00 0.00 83 1038.6
20180222160354 27 62 11.0 0.0 0.00 0.00 0.00 84 1038.4
20180222155844 28 61 11.0 0.0 0.00 0.00 0.00 83 1038.9
20180222155345 28 61 12.0 0.0 0.00 0.00 0.00 84 1038.8
20180222154850 27 67 10.0 0.0 0.00 0.00 0.00 85 1038.8
20180222154356 27 68 10.0 0.0 0.00 0.00 0.00 85 1038.8
20180222153857 27 68 13.0 0.0 0.00 0.00 0.00 85 1038.9
20180222153359 27 69 9.0 0.0 0.00 0.00 0.00 85 1038.7
20180222152853 27 69 9.0 0.0 0.00 0.00 0.00 85 1038.7
20180222152339 27 69 10.0 0.0 0.00 0.00 0.00 86 1039.2
20180222151844 27 70 8.0 0.0 0.00 0.00 0.00 86 1039.3
20180222151347 27 71 10.0 0.0 0.00 0.00 0.00 86 1039.1
20180222150851 27 71 11.0 0.0 0.00 0.00 0.00 86 1039.3
20180222150355 27 71 6.0 0.0 0.00 0.00 0.00 87 1039.3
20180222145849 27 71 8.0 0.0 0.00 0.00 0.00 87 1039.3
20180222145338 27 71 7.0 0.0 0.00 0.00 0.00 87 1039.3
20180222144837 27 71 8.0 0.0 0.00 0.00 0.00 87 1039.1
20180222144338 27 71 11.0 0.0 0.00 0.00 0.00 88 1038.9
20180222143840 27 71 9.0 0.0 0.00 0.00 0.00 88 1038.9
20180222143403 27 71 10.0 0.0 0.00 0.00 0.00 88 1038.8
20180222142854 27 72 8.0 0.0 0.00 0.00 0.00 88 1038.8
20180222142337 27 72 13.0 0.0 0.00 0.00 0.00 89 1038.7
20180222141840 27 74 7.0 0.0 0.00 0.00 0.00 89 1038.9
20180222141348 27 74 10.0 0.0 0.00 0.00 0.00 90 1038.7
20180222140852 27 74 10.0 0.0 0.00 0.00 0.00 89 1038.6
20180222140400 27 75 9.0 0.0 0.00 0.00 0.00 89 1038.7
20180222135852 27 75 8.0 0.0 0.00 0.00 0.00 89 1038.7
20180222135338 27 75 8.0 0.0 0.00 0.00 0.00 89 1038.8
20180222134843 27 75 6.0 0.0 0.00 0.00 0.00 90 1038.5
20180222134348 27 79 11.0 0.0 0.00 0.00 0.00 90 1038.1
20180222133847 27 81 9.0 0.0 0.00 0.00 0.00 90 1038.3
20180222133352 27 82 9.0 0.0 0.00 0.00 0.00 90 1038.2
20180222132847 27 82 10.0 0.0 0.00 0.00 0.00 91 1038.1
20180222132351 27 81 12.0 0.0 0.00 0.00 0.00 91 1038.0
20180222131838 27 86 10.0 0.0 0.00 0.00 0.00 91 1038.0
20180222131343 27 87 8.0 0.0 0.00 0.00 0.00 91 1037.8
20180222130852 27 86 10.0 0.0 0.00 0.00 0.00 91 1038.1
20180222130353 27 86 9.0 0.0 0.00 0.00 0.00 91 1038.0
20180222125840 27 86 7.0 0.0 0.00 0.00 0.00 92 1038.0
20180222125350 27 86 9.0 0.0 0.00 0.00 0.00 92 1037.8
20180222124836 27 86 10.0 0.0 0.00 0.00 0.00 92 1037.6
20180222124342 27 86 10.0 0.0 0.00 0.00 0.00 93 1037.8
20180222123848 26 83 8.0 0.0 0.00 0.00 0.00 94 1037.4
20180222123353 26 80 11.0 0.0 0.00 0.00 0.00 95 1037.3
20180222122848 25 78 12.0 0.0 0.00 0.00 0.00 96 1037.2
20180222122347 24 37 11.0 0.0 0.00 0.00 0.00 97 1037.1
20180222121851 24 22 4.0 0.0 0.00 0.00 0.00 96 1036.8
20180222121356 24 22 1.0 0.0 0.00 0.00 0.00 96 1036.9
20180222120839 24 22 1.0 0.0 0.00 0.00 0.00 96 1037.3
20180222120405 24 22 2.0 0.0 0.00 0.00 0.00 96 1036.9
20180222115839 23 22 1.0 0.0 0.00 0.00 0.00 95 1036.8
20180222115342 23 22 0.0 0.0 0.00 0.00 0.00 95 1036.8
20180222114844 23 22 2.0 0.0 0.00 0.00 0.00 94 1036.7
20180222114347 23 22 3.0 0.0 0.00 0.00 0.00 94 1036.8
20180222113848 23 22 4.0 0.0 0.00 0.00 0.00 94 1036.5
20180222113353 23 22 2.0 0.0 0.00 0.00 0.00 94 1037.3
20180222112844 23 22 2.0 0.0 0.00 0.00 0.00 94 1036.8
20180222112349 23 22 3.0 0.0 0.00 0.00 0.00 94 1036.8
20180222111854 23 22 1.0 0.0 0.00 0.00 0.00 94 1037.2
20180222111338 23 22 1.0 0.0 0.00 0.00 0.00 94 1036.9
20180222110838 23 22 1.0 0.0 0.00 0.00 0.00 94 1036.9
20180222110404 23 22 3.0 0.0 0.00 0.00 0.00 93 1037.2
20180222105837 23 22 0.0 0.0 0.00 0.00 0.00 93 1036.9
20180222105339 23 22 2.0 0.0 0.00 0.00 0.00 93 1036.6
20180222104845 23 22 0.0 0.0 0.00 0.00 0.00 93 1036.7
20180222104352 23 22 3.0 0.0 0.00 0.00 0.00 92 1036.7
20180222103855 23 22 2.0 0.0 0.00 0.00 0.00 92 1036.7
20180222103356 23 22 2.0 0.0 0.00 0.00 0.00 92 1036.9
20180222102848 23 22 2.0 0.0 0.00 0.00 0.00 92 1036.8
20180222102352 23 22 1.0 0.0 0.00 0.00 0.00 92 1036.5
20180222101838 23 22 3.0 0.0 0.00 0.00 0.00 92 1036.9
20180222101339 23 22 1.0 0.0 0.00 0.00 0.00 92 1037.0
20180222100846 23 22 2.0 0.0 0.00 0.00 0.00 92 1037.3
20180222100349 23 22 3.0 0.0 0.00 0.00 0.00 92 1037.1
20180222095858 23 22 3.0 0.0 0.00 0.00 0.00 92 1037.0
20180222095340 23 22 0.0 0.0 0.00 0.00 0.00 92 1037.1
20180222094843 23 22 2.0 0.0 0.00 0.00 0.00 92 1037.2
20180222094346 23 22 1.0 0.0 0.00 0.00 0.00 92 1037.2
20180222093848 23 22 4.0 0.0 0.00 0.00 0.00 93 1037.0
20180222093351 23 22 1.0 0.0 0.00 0.00 0.00 93 1037.6
20180222092844 23 22 0.0 0.0 0.00 0.00 0.00 94 1037.3
20180222092348 23 22 3.0 0.0 0.00 0.00 0.00 94 1037.5
20180222091851 23 22 0.0 0.0 0.00 0.00 0.00 94 1037.5
20180222091338 23 22 0.0 0.0 0.00 0.00 0.00 94 1037.6
20180222090836 23 22 0.0 0.0 0.00 0.00 0.00 94 1037.5
20180222090401 22 22 1.0 0.0 0.00 0.00 0.00 94 1037.3
20180222085849 22 22 1.0 0.0 0.00 0.00 0.00 94 1037.3
20180222085350 22 22 0.0 0.0 0.00 0.00 0.00 94 1037.7
20180222084854 22 22 1.0 0.0 0.00 0.00 0.00 94 1037.2
20180222084356 22 22 1.0 0.0 0.00 0.00 0.00 93 1037.6
20180222083838 22 22 0.0 0.0 0.00 0.00 0.00 93 1037.8
20180222083403 22 22 0.0 0.0 0.00 0.00 0.00 93 1037.7
20180222082855 22 22 1.0 0.0 0.00 0.00 0.00 93 1037.5
20180222082341 22 22 2.0 0.0 0.00 0.00 0.00 93 1037.3
20180222081843 22 22 3.0 0.0 0.00 0.00 0.00 93 1037.3